W8KJR Weather Reports


time (UTC)temp
F
wind
direction
speed
knots
gust
knots
rain 1hr
in
rain 24hr
in
rain mn
in
humidity
%
barometer
mb
20260506203718 55 273 0.9 1.7 0.00 0.38 0.38 49 1011.9
20260506202214 55 318 0.0 1.7 0.00 0.38 0.38 50 1012.0
20260506200711 55 315 0.9 1.7 0.00 0.38 0.38 48 1012.0
20260506195207 56 291 1.7 3.5 0.00 0.38 0.38 46 1011.9
20260506193704 57 294 0.0 1.7 0.00 0.38 0.38 50 1011.6
20260506192200 60 319 0.9 1.7 0.00 0.38 0.38 49 1011.8
20260506190656 57 306 1.7 2.6 0.00 0.38 0.38 50 1011.9
20260506185152 56 337 0.0 0.0 0.00 0.38 0.38 54 1012.0
20260506183649 56 287 1.7 2.6 0.00 0.38 0.38 48 1012.0
20260506182145 56 355 0.9 1.7 0.00 0.38 0.38 47 1011.9
20260506180643 57 349 0.0 3.5 0.00 0.38 0.38 50 1011.8
20260506175138 57 267 0.0 0.0 0.00 0.38 0.38 52 1011.8
20260506173637 57 321 0.0 1.7 0.00 0.38 0.38 52 1012.0
20260506172133 56 302 0.0 1.7 0.00 0.38 0.38 53 1011.9
20260506170631 56 298 1.7 2.6 0.00 0.38 0.38 53 1012.3
20260506165127 57 291 1.7 1.7 0.00 0.38 0.38 50 1012.5
20260506163623 56 315 0.0 0.0 0.00 0.38 0.38 58 1011.9
20260506162122 56 287 0.9 1.7 0.00 0.38 0.38 53 1012.4
20260506160619 55 328 1.7 1.7 0.00 0.38 0.38 54 1012.0
20260506155116 54 309 0.9 1.7 0.00 0.38 0.38 58 1011.7
20260506152814 54 132 0.9 0.9 0.00 0.38 0.38 59 1011.5
20260506151312 53 301 0.0 1.7 0.00 0.38 0.38 62 1011.4
20260506145809 52 140 0.0 0.0 0.00 0.38 0.38 64 1011.6
20260506144305 52 323 0.0 0.0 0.00 0.38 0.38 71 1011.4
20260506142804 51 313 0.9 0.9 0.00 0.38 0.38 69 1011.1
20260506141303 50 322 0.9 0.9 0.00 0.38 0.38 76 1010.8
20260506135800 49 257 0.0 0.9 0.00 0.38 0.38 82 1010.4
20260506134255 48 336 0.0 1.7 0.00 0.38 0.38 83 1010.8
20260506132752 48 281 0.0 1.7 0.00 0.38 0.38 87 1010.9
20260506131249 47 316 0.0 0.0 0.00 0.38 0.38 92 1010.7
20260506125746 47 304 0.0 0.9 0.00 0.38 0.38 96 1010.4
20260506124245 46 302 0.0 0.9 0.00 0.38 0.38 99 1009.9
20260506122744 45 307 0.0 0.9 0.00 0.38 0.38 99 1010.2
20260506121241 44 343 2.6 2.6 0.00 0.38 0.38 99 1010.1
20260506115740 44 296 0.0 0.0 1.09 0.38 0.38 99 1009.8
20260506114239 0 0.0 0.0 0.00 0.00 0.00 1009.4
20260506112736 0 0.0 0.0 0.00 0.00 0.00 1009.3
20260506111235 0 0.0 0.0 0.00 0.00 0.00 1009.2
20260506105731 0 0.0 0.0 0.00 0.00 0.00 1009.2
20260506104229 0 0.0 0.0 0.00 0.00 0.00 1009.0
20260506102727 0 0.0 0.0 0.00 0.00 0.00 1008.9
20260506101224 0 0.0 0.0 0.00 0.00 0.00 1008.4
20260506095724 0 0.0 0.0 0.00 0.00 0.00 1007.9
20260506094221 0 0.0 0.0 0.00 0.00 0.00 1008.2
20260506092720 0 0.0 0.0 0.00 0.00 0.00 1008.3
20260506091218 0 0.0 0.0 0.00 0.00 0.00 1008.7
20260506085715 0 0.0 0.0 0.00 0.00 0.00 1008.5
20260506084215 0 0.0 0.0 0.00 0.00 0.00 1008.1
20260506082713 0 0.0 0.0 0.00 0.00 0.00 1008.3
20260506081209 0 0.0 0.0 0.00 0.00 0.00 1008.3
20260506072701 0 0.0 0.0 0.00 0.00 0.00 1008.1
20260506071200 0 0.0 0.0 0.00 0.00 0.00 1008.2
20260506061154 46 328 0.0 0.0 1.18 0.20 0.20 99 1008.4
20260506051144 0 0.0 0.0 0.00 0.00 0.00 1008.5
20260506044139 0 0.0 0.0 0.00 0.00 0.00 1008.3
20260506042639 0 0.0 0.0 0.00 0.00 0.00 1008.3
20260506041137 0 0.0 0.0 0.00 0.00 0.00 1008.4
20260506035635 47 320 0.0 0.0 0.07 1.07 1.07 99 1008.5
20260506034131 0 0.0 0.0 0.00 0.00 0.00 1008.8
20260506032628 0 0.0 0.0 0.00 0.00 0.00 1008.2
20260506031125 0 0.0 0.0 0.00 0.00 0.00 1008.5
20260506025623 0 0.0 0.0 0.00 0.00 0.00 1008.6
20260506024118 0 0.0 0.0 0.00 0.00 0.00 1008.6
20260506022615 0 0.0 0.0 0.00 0.00 0.00 1008.8
20260506021113 0 0.0 0.0 0.00 0.00 0.00 1008.9
20260506015611 0 0.0 0.0 0.00 0.00 0.00 1008.7
20260506014106 0 0.0 0.0 0.00 0.00 0.00 1008.6
20260506012603 0 0.0 0.0 0.00 0.74 0.74 1008.3
20260506011059 0 0.0 0.0 0.00 0.74 0.74 1007.9
20260506005559 0 0.0 0.0 0.00 0.74 0.74 1008.1
20260506004054 48 48 0.0 0.0 0.07 0.74 0.74 99 1008.0
20260506002554 48 48 0.0 0.0 0.07 0.72 0.72 99 1007.9
20260506001050 49 60 0.0 0.0 0.17 0.71 0.71 99 1008.0
20260505235548 49 104 0.0 0.0 0.07 0.68 0.68 99 1007.8
20260505234044 49 111 0.0 0.0 0.12 0.66 0.66 99 1007.9
20260505232543 48 353 0.0 0.0 0.12 0.64 0.64 99 1008.1
20260505231042 49 296 0.0 0.0 0.19 0.61 0.61 99 1008.2
20260505225537 49 287 0.0 0.0 0.00 0.58 0.58 99 1007.8
20260505224033 49 317 0.0 0.0 0.12 0.57 0.57 99 1007.2
20260505222529 50 311 0.0 0.9 0.14 0.55 0.55 99 1007.4
20260505221025 50 331 0.9 0.9 0.17 0.53 0.53 99 1007.5
20260505215523 0 0.0 0.0 0.00 0.50 0.50 1007.2
20260505214021 50 334 0.0 0.0 0.00 0.47 0.47 99 1007.3
20260505212517 50 328 0.0 0.0 0.12 0.45 0.45 99 1007.5
20260505211013 50 268 0.0 0.0 0.12 0.42 0.42 98 1007.3
20260505205511 51 213 0.0 0.9 0.17 0.38 0.38 98 1007.2